Location: Chavenne
(46.6022°N, 3.2951°E)
Time: 02:07:52
(UTC+00:00)

Mayak - Pass Details

Date: 09 April 2020
Orbit: 581 x 600 km, 97.5° (Epoch: 05 June)

Event Time Altitude Azimuth Distance (km) Brightness Sun altitude
Rises 22:00:54 0° 13° (NNE) 2,822 ? -30.4°
Reaches altitude 10° 22:03:05 10° 15° (NNE) 1,915 ? -30.6°
Enters shadow 22:04:28 21° 17° (NNE) 1,352 ? -30.7°
